Location: Antin
(43.3330°N, 0.2804°E)
Time: 19:01:00
(UTC+00:00)

SME Rocket - Pass Details

Date: 17 December 2023
Orbit: 550 x 2645 km, 99.9° (Epoch: 20 February)

Event Time Altitude Azimuth Distance (km) Brightness Sun altitude
Rises 20:52:53 0° 232° (SW) 3,925 7.5 -47.7°
Reaches altitude 10° 20:56:53 10° 258° (WSW) 3,359 7.2 -48.4°
Maximum altitude 21:00:42 14° 287° (WNW) 3,414 7.3 -49.1°
Drops below altitude 10° 21:05:13 10° 315° (NW) 4,124 7.6 -49.9°
Sets 21:11:22 0° 337° (NNW) 5,601 8.3 -51.0°
